This is the latest recevied weather packets stored in our database for station/object UR7D-10. If no packets are shown the sender has not sent any weather packets the latest 10 day(s).
| Time | Temp. | Humidity | Pressure | Rain* | Wind** | Luminosity | Snow |
|---|---|---|---|---|---|---|---|
| 1778004413 | 23.33° C | 34% | 1011.6 hPa | 0 mm | - | - | - |
| 1778000811 | 26.11° C | 30% | 1011.5 hPa | 0 mm | - | - | - |
| 1777993604 | 27.78° C | 26% | 1012.4 hPa | 0 mm | - | - | - |
| 1777990001 | 27.22° C | 25% | 1013.1 hPa | 0 mm | - | - | - |
| 1777986397 | 26.11° C | 26% | 1013.7 hPa | 0 mm | - | - | - |
| 1777982797 | 26.11° C | 28% | 1014.5 hPa | 0 mm | - | - | - |
| 1777971982 | 22.78° C | 33% | 1015.8 hPa | 0 mm | - | - | - |
| 1777968379 | 21.67° C | 40% | 1015.8 hPa | 0 mm | - | - | - |
| 1777964775 | 17.22° C | 50% | 1016.4 hPa | 0 mm | - | - | - |
| 1777961171 | 13.33° C | 59% | 1016.4 hPa | 0 mm | - | - | - |
| 1777957568 | 10.56° C | 67% | 1016.3 hPa | 0 mm | - | - | - |
| 1777953966 | 9.44° C | 70% | 1016.4 hPa | 0 mm | - | - | - |
| 1777946759 | 10° C | 69% | 1016.2 hPa | 0 mm | - | - | - |
| 1777943156 | 10° C | 65% | 1016 hPa | 0 mm | - | - | - |
| 1777939551 | 12.22° C | 61% | 1016.1 hPa | 0 mm | - | - | - |
| 1777935949 | 11.67° C | 62% | 1016.3 hPa | 0 mm | - | - | - |
| 1777932347 | 13.33° C | 57% | 1016.6 hPa | 0 mm | - | - | - |
| 1777925137 | 16.67° C | 42% | 1016.2 hPa | 0 mm | - | - | - |
| 1777917932 | 22.22° C | 29% | 1016.1 hPa | 0 mm | - | - | - |
| 1777914328 | 25° C | 26% | 1016 hPa | 0 mm | - | - | - |
| 1777907121 | 25.56° C | 26% | 1016.4 hPa | 0 mm | - | - | - |
| 1777899916 | 24.44° C | 30% | 1017.8 hPa | 0 mm | - | - | - |
| 1777896312 | 23.89° C | 31% | 1018.2 hPa | 0 mm | - | - | - |
| 1777892707 | 22.78° C | 33% | 1018.9 hPa | 0 mm | - | - | - |
| 1777889104 | 22.22° C | 35% | 1019.3 hPa | 0 mm | - | - | - |
* Rain latest hour (hover to see other rain measurements)
** Current wind speed in m/s (hover to see current wind gust speed)